{"data":{"norad_id":60921,"epoch":"2026-05-24T19:53:36.992832Z","epoch_age_seconds":103014,"freshness":"FRESH","line1":"1 60921U 24154U   26144.82890038  .00000963  00000+0  44659-4 0  9998","line2":"2 60921  53.1614 290.0784 0001341  84.5030 275.6124 15.30193260 98003","mean_motion":15.3019326,"eccentricity":0.0001341,"inclination_deg":53.1614,"raan_deg":290.0784,"arg_perigee_deg":84.503,"mean_anomaly_deg":275.6124,"bstar":4.4659e-5,"rev_number":9800,"period_min":94.105760209661,"perigee_km":474.31615670709,"apogee_km":476.1542311295,"semimajor_km":6853.3721939183,"source":"CELESTRAK","updated_at":"2026-05-25T13:38:19.316080Z"}}